Regional Weather Roundup
Issued by NWS

Home | Current Version | Previous Version | Text Only | Print | Product List | Glossary Off
Versions: 1 2 3 4 5 6 7 8 9 10 11 12 13 14 15 16 17 18 19 20 21 22 23 24 25 26 27 28 29 30 31 32 33 34 35 36 37 38 39 40 41 42 43 44 45 46 47 48 49 50

000
ASUS43 KDMX 170406
RWRIA

WEATHER ROUNDUP FOR IOWA
NATIONAL WEATHER SERVICE DES MOINES IA
1100 PM CDT WED AUG 16 2017

NOTE: "FAIR" INDICATES FEW OR NO CLOUDS BELOW 12,000 FEET WITH NO
SIGNIFICANT WEATHER AND/OR OBSTRUCTIONS TO VISIBILITY.

* - THESE STATIONS ARE NOT NWS STATIONS...THUS NOT UNDER NWS
QUALITY CONTROL.  THEY ALSO DO NOT REPORT WEATHER SUCH
AS PRECIPITATION OR FOG.

IAZ001>003-012>014-020>022-031>034-043>046-170500-
   NORTHWEST IOWA

CITY           SKY/WX    TMP DP  RH WIND       PRES   REMARKS
CARROLL *      PTCLDY    68  66  94 SW10      29.76S
CHEROKEE *     CLOUDY    65  65 100 W12G17    29.74F
DENISON *      MOCLDY    66  64  94 W9G16     29.81S
LE MARS *      CLOUDY    66  64  94 W12       29.76S
ORANGE CITY *  DRIZZLE   66  66 100 W10       29.75S
SHELDON *      CLOUDY    66  64  94 W9G16     29.71S
SIOUX CITY     CLOUDY    67  64  90 W12       29.78S
SPENCER        CLOUDY    67  65  93 W13       29.70F
STORM LAKE *   CLOUDY    66  64  94 W13       29.75S
$$

IAZ055>058-069>071-079>083-090>094-170500-
   SOUTHWEST IOWA

CITY           SKY/WX    TMP DP  RH WIND       PRES   REMARKS
ATLANTIC *     MOCLDY    68  66  94 SW7       29.81R
AUDUBON *      CLOUDY    68  64  88 SW3       29.80S
CLARINDA *       N/A     70  68  94 W6        29.84R
COUNCIL BLFS * MOCLDY    70  68  94 NW15      29.84R
CRESTON *      CLOUDY    70  66  88 W8        29.82S
HARLAN  *      CLOUDY    68  68 100 W12G17    29.85R
LAMONI         CLOUDY    71  69  93 SW6       29.78F
RED OAK *      CLOUDY    70  66  88 W5        29.82R
SHENANDOAH *   CLOUDY    70  68  94 CALM      29.83S
$$

IAZ047>049-059>061-072>074-084-170500-
   CENTRAL IOWA

CITY           SKY/WX    TMP DP  RH WIND       PRES   REMARKS
AMES           CLOUDY    71  68  90 W9        29.74S
ANKENY *       CLOUDY    73  66  78 W12G18    29.75S
BOONE *        MOCLDY    70  66  88 W8        29.74S
CHARITON *     CLOUDY    73  68  83 SW7       29.77F
DES MOINES     CLOUDY    74  66  76 W12       29.75S
GRINNELL*      CLOUDY    74  66  76 SW8       29.76S
KNOXVILLE *    CLOUDY    73  66  78 SW8       29.74F
MARSHALLTOWN   CLOUDY    72  67  84 SW8       29.72S
NEWTON *       CLOUDY    73  66  78 SW9       29.74F
PELLA *        MOCLDY    76  66  71 SW7       29.76F
PERRY *          N/A     68  67  97 SW7       29.77S
$$

IAZ004>006-015-016-023>025-035-036-170500-
   NORTH CENTRAL IOWA

CITY           SKY/WX    TMP DP  RH WIND       PRES   REMARKS
ALGONA *       CLOUDY    68  66  94 SW15G24   29.69F
CLARION *      PTCLDY    68  68 100 SW10G16   29.71F
ESTHERVILLE    CLOUDY    66  66 100 W13G18    29.66S
FORT DODGE *   CLEAR     66  63  88 SW12      29.74S
MASON CITY     PTCLDY    69  65  86 SW15      29.70F
FOREST CITY *  CLOUDY    68  64  88 SW14G20   29.68F
WEBSTER CITY * CLEAR     68  64  88 SW10      29.71F
IOWA FALLS *     N/A     70  66  87 SW12G18   29.73S
$$

IAZ007>011-017>019-026>030-037>042-050>054-066-170500-
   NORTHEAST IOWA

CITY           SKY/WX    TMP DP  RH WIND       PRES   REMARKS
CEDAR RAPIDS   CLOUDY    76  73  91 S14       29.73F
CHARLES CITY * MOCLDY    73  73 100 SW9G18    29.69F
CLINTON *      CLOUDY    76  73  91 S13       29.77F
DECORAH *      PTCLDY    73  72  94 S8G15     29.69F
DUBUQUE        MOCLDY    74  71  91 S12       29.75F
MONTICELLO *   PTCLDY    75  73  94 S13       29.74S
OELWEIN *      MOCLDY    75  73  94 S12       29.72S
WATERLOO       MOCLDY    74  69  85 S8        29.70F
$$

IAZ064-065-067-068-078-170500-
   EAST CENTRAL IOWA

CITY           SKY/WX    TMP DP  RH WIND       PRES   REMARKS
DAVENPORT      CLOUDY    76  72  87 S14       29.79F
IOWA CITY      CLOUDY    78  72  81 S9        29.76F HX  80
MT. PLEASANT * CLOUDY    73  69  87 S12G18    29.80S
MUSCATINE *    CLOUDY    77  70  78 S13G20    29.77S
QUAD CITIES    CLOUDY    76  71  85 S12G18    29.76F
$$

IAZ062-063-075>077-085>089-095>099-170500-
   SOUTHEAST IOWA

CITY           SKY/WX    TMP DP  RH WIND       PRES   REMARKS
BURLINGTON     CLOUDY    73  70  90 S13G23    29.80S
FAIRFIELD *    CLOUDY    77  70  78 S10       29.77F
FORT MADISON * CLOUDY    75  70  83 S13G21    29.81F
KEOKUK *       CLOUDY    73  70  88 S13G22    29.81S
OSKALOOSA *    CLOUDY    75  70  85 SW8       29.77S
CENTERVILLE *  MOCLDY    75  73  94 SW6       29.79F
OTTUMWA        CLOUDY    77  72  84 SW8       29.76F
WASHINGTON *   CLOUDY    77  72  83 S9        29.78F
$$

ABBREVIATIONS USED IN REMARKS
   TC - TEMPERATURES IN CELSIUS
  WCI - WIND CHILL INDEX
   HX - HEAT INDEX
  VSB - VISIBILITY
$$




USA.gov is the U.S. government's official web portal to all federal, state and local government web resources and services.